Home   Weather   Nanjing   Past weeks

Flag for China Past Weather in Nanjing, Jiangsu, China — Yesterday and Last 2 Weeks

Now
43 °F

Fog.


Feels Like: 43 °F
Forecast: 35 / 50 °F
Wind: No wind

Location: Nanjing

Current Time: Dec 5, 2016 at 8:39:01 am

Latest Report: Dec 5, 2016 at 8:00 am


Visibility: 1 mi

Pressure: 30.12 "Hg

Humidity: 100%

Dew Point: 43 °F

Location of NanjingLocation

Past Weather in Nanjing — Graph

°F

Nanjing Temperature Yesterday

Maximum temperature yesterday: 64 °F (at 2:00 pm)
Minimum temperature yesterday: 46 °F (at 9:00 pm)
Average temperature yesterday: 53 °F

High & Low Weather Summary for the Past Weeks

 TemperatureHumidityPressure
High64 °F (Dec 4, 2:00 pm)100% (Nov 20, 7:00 am)30.60 "Hg (Nov 20, 7:00 am)
Low28 °F (Nov 24, 5:00 am)39% (Dec 2, 2:00 pm)29.95 "Hg (Nov 21, 6:00 am)
Average46 °F86%30.33 "Hg
* Reported Nov 20 7:00 am — Dec 5 7:00 am, Nanjing, Weather by CustomWeather, © 2016

Note: Actual official high and low records may vary slightly from our data, if they occured in-between our weather recording intervals... More about our weather records

Advertising

Nanjing Weather History for the Previous 24 Hours

Scroll right to see more
 ConditionsComfort  
Time TempWeatherWind HumidityBarometerVisibility
7:00 am
Mon, Dec 5
39 °FFog.No wind100%30.09 "Hg1 mi
6:00 am41 °FFog.No wind100%30.09 "Hg1 mi
5:00 am41 °FFog.No wind100%30.09 "Hg1 mi
4:00 am43 °FFog.1 mph100%30.09 "Hg1 mi
3:00 am43 °FFog.No wind100%30.09 "Hg1 mi
2:00 am45 °FFog.1 mph93%30.09 "Hg2 mi
1:00 am46 °FFog.No wind87%30.09 "Hg2 mi
12:00 am45 °FFog.1 mph93%30.09 "Hg2 mi
11:00 pm
Sun, Dec 4
48 °FFog.1 mph87%30.09 "Hg2 mi
10:00 pm52 °FFog.3 mph72%30.09 "Hg3 mi
9:00 pm46 °FFog.3 mph93%30.09 "Hg3 mi
8:00 pm48 °FFog.No wind87%30.09 "Hg3 mi
7:00 pm50 °FFog.1 mph82%30.09 "Hg3 mi
6:00 pm52 °FHaze.3 mph77%30.09 "Hg3 mi
5:00 pm55 °FClear.3 mph67%30.07 "Hg4 mi
4:00 pm63 °FClear.8 mph52%30.07 "Hg4 mi
3:00 pm64 °FClear.10 mph49%30.07 "Hg4 mi
2:00 pm64 °FClear.13 mph49%30.07 "Hg4 mi
1:00 pm63 °FClear.10 mph52%30.09 "Hg4 mi
12:00 pm61 °FHaze.13 mph55%30.12 "Hg3 mi
11:00 am59 °FHaze.10 mph72%30.15 "Hg2 mi
10:00 am55 °FFog.13 mph82%30.15 "Hg1 mi
9:00 am54 °FFog.6 mph88%30.15 "Hg1 mi
8:00 am48 °FFog.No wind100%30.15 "Hg1 mi
Weather by CustomWeather, © 2016

See weather overviewHow to use our weather pages